Home   Weather   Utrecht   Past weeks

Flag for Netherlands Past Weather in Utrecht, Netherlands — Yesterday and Last 2 Weeks

Now
32 °F

Passing clouds.


Feels Like: 26 °F
Forecast: 21 / 34 °F
Wind: 6 mph from East

Location: Amsterdam Schiphol Airport

Current Time: Jan 21, 2017 at 9:44:27 am

Latest Report: Jan 21, 2017 at 8:55 am


Visibility: N/A

Pressure: 30.45 "Hg

Humidity: 93%

Dew Point: 30 °F

Location of UtrechtLocation

Past Weather in Utrecht — Graph

°F

Utrecht Temperature Yesterday

Maximum temperature yesterday: 41 °F (at 12:55 pm)
Minimum temperature yesterday: 25 °F (at 1:25 am)
Average temperature yesterday: 32 °F

High & Low Weather Summary for the Past Weeks

 TemperatureHumidityPressure
High50 °F (Jan 11, 11:55 am)100% (Jan 7, 4:25 am)30.74 "Hg (Jan 7, 4:25 am)
Low21 °F (Jan 6, 8:25 am)39% (Jan 19, 2:25 pm)29.09 "Hg (Jan 12, 11:25 pm)
Average35 °F87%30.20 "Hg
* Reported Jan 6 8:25 am — Jan 21 8:25 am, Utrecht, Weather by CustomWeather, © 2017

Note: Actual official high and low records may vary slightly from our data, if they occured in-between our weather recording intervals... More about our weather records

Advertising

Utrecht Weather History for the Previous 24 Hours

Scroll right to see more
 ConditionsComfort  
Time TempWeatherWind HumidityBarometerVisibility
8:25 am
Sat, Jan 21
32 °FClear.7 mph93%30.45 "Hg4 mi
7:55 am32 °FClear.6 mph93%30.45 "Hg10 mi
7:25 am30 °FClear.8 mph93%30.45 "Hg10 mi
6:55 am30 °FPassing clouds.5 mph100%30.45 "Hg6 mi
6:25 am32 °FPassing clouds.5 mph93%30.48 "Hg6 mi
5:55 am30 °FPassing clouds.5 mph93%30.48 "Hg5 mi
5:25 am30 °FPassing clouds.5 mph93%30.48 "Hg4 mi
4:55 am30 °FPassing clouds.5 mph100%30.48 "Hg4 mi
4:25 am32 °FPassing clouds.5 mph93%30.48 "Hg4 mi
3:55 am30 °FPassing clouds.6 mph93%30.48 "Hg5 mi
3:25 am30 °FPassing clouds.5 mph100%30.48 "Hg6 mi
2:55 am30 °FPassing clouds.3 mph100%30.51 "HgN/A
2:25 am32 °FPassing clouds.5 mph93%30.51 "HgN/A
1:55 am34 °FPassing clouds.3 mph93%30.51 "HgN/A
1:25 am32 °FPassing clouds.6 mph93%30.51 "HgN/A
12:55 am34 °FPassing clouds.7 mph87%30.51 "HgN/A
12:25 am34 °FClear.7 mph87%30.51 "Hg10 mi
11:55 pm
Fri, Jan 20
34 °FClear.7 mph87%30.54 "Hg10 mi
11:25 pm32 °FClear.6 mph93%30.54 "Hg10 mi
10:55 pm32 °FClear.7 mph93%30.54 "Hg10 mi
10:25 pm34 °FClear.8 mph87%30.54 "Hg10 mi
9:55 pm34 °FClear.9 mph87%30.54 "Hg10 mi
9:25 pm32 °FClear.8 mph87%30.54 "Hg10 mi
8:55 pm34 °FClear.8 mph81%30.54 "Hg10 mi
8:25 pm36 °FClear.10 mph81%30.54 "Hg10 mi
7:55 pm34 °FClear.8 mph81%30.54 "Hg10 mi
7:25 pm34 °FClear.7 mph81%30.54 "Hg10 mi
6:55 pm34 °FClear.8 mph75%30.54 "Hg10 mi
6:25 pm32 °FClear.6 mph69%30.54 "Hg10 mi
5:55 pm34 °FClear.8 mph60%30.54 "Hg10 mi
5:25 pm36 °FClear.7 mph56%30.54 "Hg10 mi
4:55 pm36 °FSunny.7 mph56%30.54 "Hg10 mi
4:25 pm37 °FSunny.7 mph52%30.54 "Hg10 mi
3:55 pm39 °FPassing clouds.7 mph52%30.54 "HgN/A
3:25 pm39 °FSunny.6 mph52%30.54 "Hg10 mi
2:55 pm39 °FSunny.5 mph45%30.54 "Hg10 mi
2:25 pm39 °FSunny.7 mph45%30.57 "Hg10 mi
1:55 pm39 °FSunny.7 mph45%30.57 "Hg10 mi
1:25 pm39 °FSunny.7 mph45%30.57 "Hg10 mi
12:55 pm41 °FSunny.6 mph39%30.57 "Hg10 mi
12:25 pm39 °FSunny.7 mph39%30.57 "Hg10 mi
11:55 am39 °FSunny.7 mph42%30.60 "Hg10 mi
11:25 am37 °FSunny.6 mph45%30.60 "Hg10 mi
10:55 am36 °FSunny.6 mph65%30.60 "Hg10 mi
10:25 am34 °FSunny.5 mph75%30.60 "Hg10 mi
9:55 am32 °FSunny.5 mph75%30.60 "Hg10 mi
9:25 am28 °FSunny.3 mph80%30.60 "Hg10 mi
Weather by CustomWeather, © 2017

See weather overviewHow to use our weather pages